[[{"header":{"parameterUnit":"m.s-1","parameterCategory":1,"la1":30.2991,"la2":30.254,"lo1":-89.0895,"lo2":-89.0444,"dy":0.0017,"dx":0.0017,"nx":28,"ny":28,"refTime":"2025-03-15T09:00:00:Z","depth":0,"parameterNumber":2,"parameterNumberName":"U-component_of_WINDS"},"data":[0,0,0,0,0,0,0,0,0,0,0,0,0,0,0,0,0,0,0,0,0,0,0,0,0,0,0,0,0,0,0,0,0,0,0,0,0,0,0,0,0,0,0,0,0,0,0,0,0,0,0,0,0,0,0,0,0,0,5.9526,5.9527,0,5.9628,5.9629,5.963,5.9606,5.9604,5.9602,5.96,5.9708,5.9712,5.9717,0,0,0,0,0,0,0,0,0,0,0,0,0,5.9316,5.932,5.9526,5.9527,5.9528,5.9628,5.9629,5.963,5.9606,5.9604,5.9601,5.9599,5.9706,5.9712,5.9718,0,0,0,0,0,0,0,0,0,0,0,0,0,5.9412,5.9322,5.9526,5.9528,5.9529,5.9627,5.9629,5.9631,5.9607,5.9604,5.9601,5.9598,5.9705,5.9711,5.9718,5.9821,0,0,5.974,5.9743,0,0,0,0,0,0,0,0,5.9406,5.942,5.9527,5.9528,5.953,5.9601,5.9595,5.9695,5.9607,5.9577,5.96,5.9596,5.9675,5.9684,5.971,5.9826,5.9831,5.9741,5.9745,5.9748,5.975,0,0,0,0,0,0,0,5.94,5.9415,5.9566,5.9528,5.953,5.9526,5.9536,5.9613,5.9642,5.958,5.9578,5.959,5.9675,5.9703,5.9712,5.9832,5.974,5.9747,5.9751,5.9754,6.0043,6.0046,0,0,0,0,0,0,5.9391,5.941,5.9563,5.9569,5.9459,5.9532,5.9544,5.9581,5.9641,5.9647,5.9593,5.9589,5.9693,5.9704,5.9716,5.9843,5.9748,5.9754,5.9758,6.0039,6.0044,6.0047,0,0,0,0,0,0,5.9387,5.9405,5.9559,5.9489,5.9508,5.9539,5.9581,5.9585,5.9612,5.965,5.9656,5.9616,5.9691,5.9706,5.9796,5.9847,5.9758,5.9764,6.0035,6.0041,6.0045,6.0097,0,0,0,0,0,0,5.9381,5.9404,5.9441,5.949,5.9512,5.9635,5.9584,5.9589,5.9624,5.962,5.9674,5.968,5.969,5.9786,5.9803,5.9855,5.977,6.0031,6.0038,6.0044,6.0091,6.0103,6.0113,0,0,0,0,0,5.9373,5.9452,5.9443,5.9462,5.956,5.9638,5.9651,5.966,5.9628,5.9668,5.9693,5.9678,5.9838,5.9795,5.9814,5.9869,6.0028,6.0036,6.0043,6.0085,6.0101,6.0113,0,0,0,0,0,0,5.9408,5.9458,5.9449,5.9545,5.9588,5.9634,5.9684,5.9675,5.9728,5.9722,5.9732,5.9744,5.9837,5.9862,5.9813,5.9974,5.9929,5.9941,5.9954,5.9969,5.998,5.9973,5.9775,0,0,0,0,0,5.9427,5.9485,5.9526,5.9606,5.9628,5.9653,5.9687,5.969,5.9735,5.9753,5.9785,5.983,5.9891,5.9931,5.9989,6.0094,6.0107,6.0142,6.0153,6.0162,6.0173,6.0235,6.0251,6.0073,6.0073,6.0072,0,0,5.9466,5.9501,5.9537,5.9614,5.9648,5.971,5.9668,5.9734,5.9782,5.9764,5.9851,5.9876,5.9928,6.0027,6.0072,6.005,6.0225,6.0172,6.0179,6.0185,6.0244,6.0261,6.0276,6.0078,6.0077,6.0076,0,0,5.957,5.9601,5.9673,5.9708,5.9759,5.9775,5.9793,5.9841,5.9857,5.9945,5.9934,5.9991,6.0095,6.0133,6.0166,6.0289,6.0279,6.0308,6.0368,6.0428,6.0442,6.0455,6.0502,6.0518,6.0318,6.0318,6.0318,0,5.9613,5.9705,5.9712,5.9781,5.9817,5.9803,5.9879,5.9912,5.998,6.0007,5.9981,6.0114,6.0147,6.0257,6.0287,6.0314,6.0337,6.0302,6.0439,6.0452,6.0464,6.0509,6.0526,6.0322,6.0321,6.0321,6.0321,0,5.9757,5.9821,5.9874,5.994,5.9982,6.0053,6.0074,6.0116,6.0116,6.0136,6.0228,6.0268,6.0336,6.0362,6.0362,6.0473,6.0458,6.0436,6.0391,6.0484,6.0527,6.0544,6.0327,6.0325,6.0324,6.0323,0,0,5.9885,5.9955,5.9975,6.0007,6.0063,6.0114,6.0187,6.0252,6.029,6.0338,6.0402,6.0491,6.0472,6.051,6.0515,6.0568,6.0667,6.0539,6.0541,6.0564,6.0795,6.0813,6.0833,6.066,6.0663,6.0665,6.0792,0,5.9996,6.0123,6.0133,6.0248,6.031,6.0299,6.0363,6.0407,6.0428,6.0485,6.0509,6.0573,6.0541,6.0565,6.0616,6.0644,6.0714,6.0634,6.0722,6.0725,6.0711,6.0854,6.0873,6.099,6.0808,6.0811,6.0813,0,6.0143,6.0196,6.0317,6.0369,6.0395,6.0452,6.0515,6.0568,6.0619,6.0631,6.0675,6.0674,6.0752,6.0704,6.0813,6.0759,6.0796,6.0816,6.082,6.083,6.0776,6.0871,6.1027,6.1046,6.0839,6.0837,6.0835,0,6.0228,6.0329,6.0416,6.0443,6.0504,6.0545,6.0573,6.062,6.0661,6.0716,6.0743,6.0807,6.0843,6.0894,6.0912,6.0874,6.1022,6.0974,6.1037,6.1037,6.107,6.1068,6.1237,6.109,6.1089,6.1089,6.1089,0,6.0352,6.0428,6.0456,6.0509,6.0595,6.0606,6.0692,6.0717,6.076,6.0821,6.0816,6.0873,6.0892,6.0954,6.0968,6.1059,6.1075,6.1089,6.1093,6.1091,6.1089,6.1116,6.1109,6.1094,6.1093,6.1092,6.1091,0,6.0462,6.0483,6.0578,6.0629,6.0644,6.0705,6.075,6.0803,6.0824,6.0901,6.092,6.0953,6.1026,6.1048,6.1136,6.1146,6.1253,6.1248,6.1236,6.1237,6.13,6.1295,6.1494,6.1522,6.1354,6.1355,6.1356,0,6.0541,6.06,6.0657,6.0697,6.0727,6.0791,6.0832,6.0847,6.089,6.0954,6.1001,6.1072,6.113,6.1247,6.1281,6.1349,6.1347,6.1412,6.1357,6.1355,6.1352,6.1349,6.1357,6.1423,6.1425,6.1426,6.1427,0,6.0681,6.0689,6.0748,6.0812,6.0861,6.0912,6.0962,6.0995,6.1018,6.1067,6.1141,6.1186,6.1277,6.1349,6.1419,6.145,6.1445,6.1444,6.1463,6.1463,6.1455,6.1464,6.1267,6.144,6.1439,6.1438,6.1437,6.1437,6.078,6.0833,6.0883,6.0949,6.0988,6.1035,6.1089,6.1117,6.1178,6.1252,6.1257,6.1338,6.1391,6.1484,6.1519,6.1584,6.1566,6.1592,6.1599,6.1606,6.1613,6.1443,6.1597,6.1596,6.1596,6.1596,6.1596,0,6.0922,6.0954,6.1015,6.1085,6.1139,6.1127,6.1182,6.1228,6.1299,6.1348,6.1406,6.1493,6.1564,6.1604,6.1675,6.1721,6.172,6.1739,6.1737,6.1745,6.1624,6.1602,6.1739,6.1739,6.1739,6.1739,6.1739,6.1739,6.1003,6.1092,6.1107,6.1217,6.1249,6.1327,6.136,6.1405,6.1444,6.1541,6.16,6.1625,6.1672,6.1747,6.1813,6.1823,6.1852,6.1873,6.1882,6.1768,6.1753,6.1739,6.1719,6.1879,6.1879,6.1999,6.2,6.2001]},{"header":{"parameterUnit":"m.s-1","parameterCategory":1,"la1":30.2991,"la2":30.254,"lo1":-89.0895,"lo2":-89.0444,"dy":0.0017,"dx":0.0017,"nx":28,"ny":28,"refTime":"2025-03-15T09:00:00:Z","depth":0,"parameterNumber":3,"parameterNumberName":"V-component_of_WINDS"},"data":[0,0,0,0,0,0,0,0,0,0,0,0,0,0,0,0,0,0,0,0,0,0,0,0,0,0,0,0,0,0,0,0,0,0,0,0,0,0,0,0,0,0,0,0,0,0,0,0,0,0,0,0,0,0,0,0,0,0,-1.4514,-1.4513,0,-1.4451,-1.445,-1.445,-1.4487,-1.4489,-1.4491,-1.4492,-1.4422,-1.4418,-1.4415,0,0,0,0,0,0,0,0,0,0,0,0,0,-1.4663,-1.466,-1.4514,-1.4513,-1.4513,-1.4451,-1.445,-1.4449,-1.4487,-1.4489,-1.4491,-1.4493,-1.4423,-1.4419,-1.4414,0,0,0,0,0,0,0,0,0,0,0,0,0,-1.4599,-1.4659,-1.4514,-1.4524,-1.4524,-1.4451,-1.445,-1.4449,-1.4486,-1.4489,-1.4492,-1.4494,-1.4424,-1.4419,-1.4414,-1.4326,0,0,-1.4397,-1.4395,0,0,0,0,0,0,0,0,-1.4602,-1.4593,-1.4523,-1.4523,-1.4523,-1.448,-1.4477,-1.4408,-1.4485,-1.45,-1.4492,-1.4495,-1.4438,-1.4432,-1.4414,-1.4323,-1.432,-1.4397,-1.4394,-1.4391,-1.439,0,0,0,0,0,0,0,-1.4607,-1.4596,-1.4489,-1.4522,-1.4522,-1.453,-1.4524,-1.4464,-1.4455,-1.4499,-1.4502,-1.4494,-1.4439,-1.4419,-1.4413,-1.4319,-1.4397,-1.4392,-1.4389,-1.4387,-1.4153,-1.4151,0,0,0,0,0,0,-1.4611,-1.4599,-1.4491,-1.4487,-1.457,-1.4525,-1.4518,-1.4491,-1.4455,-1.4453,-1.4492,-1.4496,-1.4427,-1.4419,-1.441,-1.4306,-1.4391,-1.4386,-1.4383,-1.4156,-1.4153,-1.415,0,0,0,0,0,0,-1.4614,-1.4601,-1.4494,-1.4544,-1.4531,-1.452,-1.4488,-1.4488,-1.4469,-1.445,-1.4448,-1.4474,-1.4429,-1.4418,-1.4347,-1.4304,-1.4384,-1.4379,-1.416,-1.4155,-1.4151,-1.4096,0,0,0,0,0,0,-1.4618,-1.4602,-1.4569,-1.4543,-1.4528,-1.4433,-1.4486,-1.4485,-1.446,-1.4465,-1.4432,-1.443,-1.443,-1.4355,-1.4342,-1.4298,-1.4375,-1.4164,-1.4158,-1.4153,-1.4101,-1.409,-1.408,0,0,0,0,0,-1.4623,-1.4555,-1.4567,-1.4554,-1.4487,-1.443,-1.4421,-1.4425,-1.4456,-1.4423,-1.4411,-1.4431,-1.4311,-1.4348,-1.4333,-1.4287,-1.4166,-1.416,-1.4153,-1.4106,-1.4092,-1.408,0,0,0,0,0,0,-1.4573,-1.4551,-1.4565,-1.4486,-1.446,-1.4437,-1.4394,-1.441,-1.4373,-1.4379,-1.4383,-1.4376,-1.4302,-1.4288,-1.4329,-1.4201,-1.4243,-1.4233,-1.4213,-1.4199,-1.4189,-1.4193,-1.4371,0,0,0,0,0,-1.4554,-1.4511,-1.4493,-1.4425,-1.4412,-1.4405,-1.438,-1.4386,-1.4358,-1.4347,-1.433,-1.4301,-1.4257,-1.4227,-1.4186,-1.41,-1.4093,-1.4061,-1.405,-1.4042,-1.4033,-1.3987,-1.3972,-1.4127,-1.4128,-1.4128,0,0,-1.4511,-1.4494,-1.4466,-1.4415,-1.4395,-1.4349,-1.4395,-1.4345,-1.431,-1.4338,-1.4271,-1.4258,-1.4226,-1.4148,-1.4112,-1.4133,-1.3989,-1.4033,-1.4027,-1.4022,-1.3978,-1.3964,-1.3951,-1.4123,-1.4124,-1.4124,0,0,-1.4411,-1.4394,-1.4336,-1.4316,-1.4287,-1.4284,-1.427,-1.4244,-1.4237,-1.4171,-1.4191,-1.415,-1.4074,-1.405,-1.4028,-1.3922,-1.3938,-1.3908,-1.3852,-1.3807,-1.3795,-1.3784,-1.3746,-1.3732,-1.3899,-1.3899,-1.3899,0,-1.4362,-1.4295,-1.4304,-1.4252,-1.4228,-1.4255,-1.4195,-1.4175,-1.4133,-1.4115,-1.414,-1.4047,-1.4026,-1.3943,-1.3918,-1.3899,-1.3883,-1.3911,-1.3796,-1.3786,-1.3775,-1.3739,-1.3725,-1.3896,-1.3896,-1.3896,-1.3897,0,-1.4236,-1.4189,-1.4146,-1.4107,-1.4079,-1.4023,-1.4022,-1.3993,-1.4001,-1.3995,-1.3927,-1.3905,-1.386,-1.384,-1.3847,-1.3758,-1.3772,-1.3796,-1.3839,-1.3757,-1.3723,-1.3709,-1.3891,-1.3892,-1.3893,-1.3894,0,0,-1.41,-1.4069,-1.4053,-1.4036,-1.4007,-1.397,-1.3916,-1.3874,-1.3848,-1.3819,-1.3773,-1.3709,-1.3732,-1.3707,-1.3712,-1.3673,-1.359,-1.3702,-1.3701,-1.3681,-1.3491,-1.3472,-1.3456,-1.3601,-1.3599,-1.3597,-1.3493,0,-1.3998,-1.3906,-1.3913,-1.3825,-1.3782,-1.3807,-1.376,-1.3736,-1.3729,-1.3691,-1.3683,-1.3637,-1.3671,-1.3656,-1.3619,-1.3608,-1.3551,-1.3615,-1.3557,-1.3555,-1.3564,-1.3438,-1.3418,-1.3322,-1.348,-1.3478,-1.3476,0,-1.3866,-1.3835,-1.3743,-1.3722,-1.3704,-1.3661,-1.3624,-1.3588,-1.3561,-1.3559,-1.3533,-1.3544,-1.3489,-1.3534,-1.3457,-1.3501,-1.3478,-1.3469,-1.3465,-1.3459,-1.351,-1.3428,-1.3291,-1.3276,-1.3455,-1.3457,-1.3458,0,-1.3776,-1.3711,-1.3648,-1.3633,-1.3606,-1.3576,-1.3563,-1.354,-1.3514,-1.3482,-1.3465,-1.3425,-1.3403,-1.3372,-1.3372,-1.3405,-1.3294,-1.334,-1.329,-1.329,-1.3264,-1.3265,-1.3121,-1.325,-1.3251,-1.3251,-1.3251,0,-1.3661,-1.3604,-1.3608,-1.3568,-1.3505,-1.3514,-1.345,-1.3441,-1.342,-1.3379,-1.3398,-1.3358,-1.3362,-1.3322,-1.3322,-1.3258,-1.3248,-1.3244,-1.3244,-1.3241,-1.3242,-1.3225,-1.3232,-1.3247,-1.3248,-1.3249,-1.3249,0,-1.3549,-1.355,-1.3483,-1.3464,-1.3458,-1.3412,-1.3395,-1.3358,-1.3354,-1.3302,-1.329,-1.3283,-1.3237,-1.3235,-1.3181,-1.3181,-1.3104,-1.3112,-1.3113,-1.3114,-1.3065,-1.3069,-1.2903,-1.2882,-1.3026,-1.3025,-1.3024,0,-1.3475,-1.3432,-1.341,-1.3385,-1.3371,-1.333,-1.3305,-1.3312,-1.3285,-1.3253,-1.3219,-1.3176,-1.3141,-1.3067,-1.3056,-1.3015,-1.3022,-1.2967,-1.3016,-1.3015,-1.3021,-1.3023,-1.3019,-1.2957,-1.2955,-1.2954,-1.2953,0,-1.3344,-1.3347,-1.3311,-1.3276,-1.3247,-1.3219,-1.3193,-1.3171,-1.3175,-1.3143,-1.3098,-1.3072,-1.3019,-1.2975,-1.2936,-1.2921,-1.2937,-1.2938,-1.2924,-1.2921,-1.2923,-1.2921,-1.3086,-1.2941,-1.2942,-1.2943,-1.2944,-1.2944,-1.3248,-1.3212,-1.3191,-1.3151,-1.3133,-1.3109,-1.3073,-1.3066,-1.3029,-1.2988,-1.2994,-1.2943,-1.2918,-1.2868,-1.2851,-1.281,-1.2829,-1.2809,-1.2804,-1.2799,-1.2793,-1.2931,-1.2803,-1.2803,-1.2804,-1.2804,-1.2804,0,-1.3118,-1.3106,-1.307,-1.3034,-1.3003,-1.3024,-1.2996,-1.2968,-1.2924,-1.2901,-1.2868,-1.2816,-1.2774,-1.2761,-1.272,-1.269,-1.2697,-1.2679,-1.2681,-1.2677,-1.2779,-1.2795,-1.2675,-1.2675,-1.2675,-1.2675,-1.2675,-1.2675,-1.3046,-1.2986,-1.2986,-1.2917,-1.2905,-1.2858,-1.284,-1.2818,-1.28,-1.2742,-1.2708,-1.2701,-1.2681,-1.264,-1.2602,-1.2599,-1.2583,-1.2563,-1.2562,-1.2657,-1.267,-1.2683,-1.2698,-1.2559,-1.2559,-1.2464,-1.2463,-1.2463]}]]